Terminal Aerodrome Forecast
Issued by NWS Indianapolis, IN

Home | Current Version | Previous Version | Text Only | Print | Product List | Glossary On
Versions: 1 2 3 4 5 6 7 8 9 10 11 12 13 14 15 16 17 18 19 20 21 22 23 24 25 26 27 28 29 30 31 32 33 34 35 36 37 38
634
FTUS43 KIND 211120
TAFIND
TAF
KIND 211120Z 2112/2218 17006KT P6SM BKN200
     FM211600 18009KT P6SM SCT045 BKN140
     FM220000 18004KT P6SM SCT045 BKN150
     FM220400 VRB03KT 5SM BR OVC090
     FM221200 08005KT 3SM BR OVC015
     FM221600 07006KT 3SM BR OVC020=

USA.gov is the U.S. government's official web portal to all federal, state and local government web resources and services.